USTRANSCOM 7583


KNGU
Norfolk Naval Station (Chambers Field)
Norfolk, Virginia, US
MUGM
Guantánamo Bay Naval Air Station
Guantanamo, , CU

Activity Log

Date Flight Route Aircraft Duration
12/22/2019 CMB7583 SWOPE ECG DIW IDOLS Y323 CARPX AR3 NUCAR Y374 RUMFO ZIN EASTP SOUTP SOUTP2 B752 3h 08m

Route Details

Aircraft Information
Primary: Boeing 757-200SF
Backup: Not Available
Route Data
Distance: 1025.27nm
Sched. Duration: 3h 29m
Avg. Duration: 3h 08m (-22m)
Times Flown: 1
Recm'd Route: SWOPE ECG DIW IDOLS Y323 CARPX AR3 NUCAR Y374 RUMFO ZIN EASTP SOUTP SOUTP2
Planned Altitude: 37,000ft
Origin Wx: KNGU 160759Z 16005KT 10SM SCT070 OVC095 07/06 A2962 RMK AO2 RAE13 SLP029 P0001 T00720056 $
Dest. Wx: MUGM 160751Z 36006KT 9SM FEW020 SCT250 21/21 A2996 RMK AO2 SLP145 T02110206 $
Notes: USTRANSCOM CONTRACT FLIGHT | OVERFLIGHT OF CUBA PROHIBITED | SOUTP & EASTP FIXES MANDATORY

Financial History
Total Freight: 53,079lbs
Average Load: 53,079lbs/flt
Fuel Used: 25,011lbs
Avg. Fuel Used: 25,011lbs/flt
Fuel Expense: $23,760
Avg. Fuel Expense: $23,760
Avg. Fuel Cost: $0.95/lbs
Total Gross Income: $87,050
Pilot Pay: $229
Total Expenses: $9,453
Total Revenue: $53,118
Average Revenue: $87,049.56